Amateur Radio Satellites - All Passes

Search period start: 24 May 2013 08:47
Search period end: 25 May 2013 08:47
Location: Coffee Creek Observatory, 38.8077°N, 94.7179°W

Satellite Date Start Highest point End Downlink Frequencies (MHz)
Time Altitude Azimuth
AO-7 24 May 08:51:48 08:56:16 16° 311° (NW) 09:00:45 29.400 - 29.500 MHz
KITSAT 1 24 May 09:03:28 09:11:33 70° 245° (WSW) 09:19:35 435.175 FM
SO-67 24 May 09:05:48 09:09:24 90° 115° (ESE) 09:12:58 435.3500 MHz FM
HO-68 24 May 09:12:50 09:15:23 12° 89° (E) 09:17:56 435.675 MHz FM
JAS-1B 24 May 09:23:07 09:29:06 83° 285° (WNW) 09:34:45 435.800 - 435.900 CW/SSB
Hamsat 24 May 09:24:58 09:28:16 21° 292° (WNW) 09:31:35 145.90 MHz
PCSat 24 May 09:29:43 09:32:52 15° 316° (NW) 09:36:02 145.825 MHz
ISS 24 May 09:33:46 09:37:08 83° 220° (SW) 09:40:30 145.800 FM
SO-50 24 May 09:52:13 09:56:26 30° 310° (NW) 10:00:38 436.795 FM
JAS-2 24 May 10:16:20 10:22:06 30° 93° (E) 10:27:16 435.800 - 435.900 CW/SSB, 435.910 FM
HO-68 24 May 10:56:50 11:04:02 81° 105° (ESE) 11:11:13 435.675 MHz FM
UOSAT-12 24 May 11:03:22 11:07:24 34° 114° (ESE) 11:11:30 437.025 FM, 437.400 FM
KITSAT 1 24 May 11:03:22 11:05:29 11° 262° (W) 11:07:35 435.175 FM
OPAL 24 May 11:08:09 11:12:25 28° 98° (E) 11:16:39 ?
JAS-1B 24 May 11:17:50 11:18:38 10° 306° (NW) 11:19:25 435.800 - 435.900 CW/SSB
Oscar 11 24 May 11:26:21 11:30:42 68° 285° (WNW) 11:35:02 145.825 FM, Beacon 2401.500 USB
PANSAT 24 May 11:28:48 11:30:44 13° 167° (SSE) 11:32:39 not established
JAS-2 24 May 12:01:00 12:07:18 41° 293° (WNW) 12:12:53 435.800 - 435.900 CW/SSB, 435.910 FM
MaSat-1 24 May 12:16:25 12:19:15 33° 252° (WSW) 12:21:40 437.345 MHz
UOSAT-12 24 May 12:43:48 12:47:36 26° 311° (NW) 12:51:27 437.025 FM, 437.400 FM
HO-68 24 May 12:46:07 12:50:54 20° 303° (WNW) 12:55:42 435.675 MHz FM
OPAL 24 May 12:46:55 12:51:17 31° 294° (WNW) 12:55:36 ?
Oscar 16 24 May 12:51:13 12:53:46 14° 61° (ENE) 12:56:19 437.025 USB, Beacon 2401.1428
AO-27 24 May 13:04:31 13:06:57 14° 61° (ENE) 13:09:24 436.795 MHz FM
PANSAT 24 May 13:07:45 13:10:26 18° 180° (S) 13:13:07 not established
ITAMSAT 1 24 May 13:10:15 13:13:05 15° 62° (ENE) 13:15:56 435.822 SSB
Saudisat 1A 24 May 13:14:42 13:16:35 12° 40° (NE) 13:18:27 436.775 MHz
Oscar 19 24 May 13:48:01 13:52:50 40° 70° (ENE) 13:57:40 437.125 CW, 437.150 USB
Uribyol 2 24 May 13:48:38 13:53:18 36° 69° (ENE) 13:58:01 436.500 FM
Oscar 16 24 May 14:27:18 14:32:29 74° 258° (WSW) 14:37:42 437.025 USB, Beacon 2401.1428
AO-27 24 May 14:40:39 14:45:49 75° 257° (WSW) 14:51:01 436.795 MHz FM
ITAMSAT 1 24 May 14:46:52 14:52:00 67° 258° (WSW) 14:57:11 435.822 SSB
PANSAT 24 May 14:48:19 14:50:08 13° 193° (SSW) 14:51:58 not established
Saudisat 1A 24 May 14:52:26 14:57:00 85° 59° (ENE) 15:01:27 436.775 MHz
TMSAT-1 24 May 14:56:17 14:58:16 12° 60° (ENE) 15:00:14 436.925 FM
Uosat F 24 May 15:11:07 15:15:26 30° 68° (ENE) 15:19:45 435.120 FM
AO-Echo 24 May 15:16:08 15:20:59 79° 76° (ENE) 15:25:45 ?
Gurwin Techsat 1B 24 May 15:16:20 15:20:48 28° 67° (ENE) 15:25:16 435.225 FM
RS-15 24 May 15:18:56 15:28:47 31° 104° (ESE) 15:38:18 29.354 - 29.394 USB, Beacon 29.352 USB
Sapphire 24 May 15:23:51 15:27:00 15° 44° (NE) 15:30:09 437.095 MHz 1200 baud AX-25 AFSK
Oscar 19 24 May 15:28:13 15:32:17 23° 266° (W) 15:36:24 437.125 CW, 437.150 USB
Uribyol 2 24 May 15:28:34 15:32:50 26° 265° (W) 15:37:09 436.500 FM
AO-7 24 May 16:03:01 16:09:54 31° 58° (ENE) 16:16:49 29.400 - 29.500 MHz
TMSAT-1 24 May 16:32:08 16:37:26 85° 257° (WSW) 16:42:46 436.925 FM
PCSat 24 May 16:32:43 16:38:02 52° 58° (ENE) 16:43:18 145.825 MHz
SO-50 24 May 16:45:07 16:48:39 22° 47° (NE) 16:52:08 436.795 FM
Uosat F 24 May 16:49:52 16:54:10 29° 264° (W) 16:58:30 435.120 FM
Gurwin Techsat 1B 24 May 16:55:51 17:00:38 34° 263° (W) 17:05:27 435.225 FM
Sapphire 24 May 17:05:43 17:11:11 87° 243° (WSW) 17:16:36 437.095 MHz 1200 baud AX-25 AFSK
RS-15 24 May 17:28:11 17:40:15 74° 304° (WNW) 17:51:50 29.354 - 29.394 USB, Beacon 29.352 USB
AO-7 24 May 17:54:01 18:02:10 61° 257° (WSW) 18:10:24 29.400 - 29.500 MHz
PCSat 24 May 18:17:09 18:21:01 20° 254° (WSW) 18:24:53 145.825 MHz
JAS-1B 24 May 18:18:19 18:23:02 16° 58° (ENE) 18:27:24 435.800 - 435.900 CW/SSB
SO-50 24 May 18:25:10 18:29:27 43° 244° (WSW) 18:33:40 436.795 FM
STRAND 1 24 May 18:26:16 18:28:23 12° 90° (E) 18:30:29 ?
Hamsat 24 May 18:42:09 18:45:15 20° 68° (ENE) 18:48:22 145.90 MHz
UOSAT-12 24 May 19:34:16 19:37:59 23° 48° (NE) 19:41:41 437.025 FM, 437.400 FM
SO-67 24 May 19:40:49 19:43:49 26° 72° (ENE) 19:46:49 435.3500 MHz FM
RS-15 24 May 19:45:44 19:55:02 26° 330° (NNW) 20:04:05 29.354 - 29.394 USB, Beacon 29.352 USB
STRAND 1 24 May 20:02:56 20:08:04 71° 286° (WNW) 20:13:11 ?
JAS-1B 24 May 20:03:27 20:12:40 77° 73° (ENE) 20:20:30 435.800 - 435.900 CW/SSB
Hamsat 24 May 20:17:22 20:21:07 31° 263° (W) 20:24:55 145.90 MHz
JAS-2 24 May 20:27:42 20:32:10 17° 56° (ENE) 20:36:37 435.800 - 435.900 CW/SSB, 435.910 FM
UOSAT-12 24 May 21:13:58 21:18:17 41° 245° (WSW) 21:22:35 437.025 FM, 437.400 FM
SO-67 24 May 21:14:56 21:17:16 16° 266° (W) 21:19:37 435.3500 MHz FM
HO-68 24 May 21:23:44 21:30:36 54° 68° (ENE) 21:37:29 435.675 MHz FM
KITSAT 1 24 May 21:37:57 21:43:13 19° 102° (ESE) 21:48:29 435.175 FM
JAS-1B 24 May 21:56:50 22:03:32 23° 267° (W) 22:09:37 435.800 - 435.900 CW/SSB
RS-15 24 May 22:06:18 22:13:17 17° 7° (N) 22:20:06 29.354 - 29.394 USB, Beacon 29.352 USB
JAS-2 24 May 22:08:14 22:15:58 78° 74° (ENE) 22:23:48 435.800 - 435.900 CW/SSB, 435.910 FM
Oscar 11 24 May 22:20:13 22:24:31 81° 76° (ENE) 22:28:52 145.825 FM, Beacon 2401.500 USB
OPAL 24 May 22:21:33 22:26:30 46° 69° (ENE) 22:31:24 ?
HO-68 24 May 23:12:41 23:18:33 27° 265° (W) 23:24:28 435.675 MHz FM
KITSAT 1 24 May 23:29:32 23:37:36 83° 299° (WNW) 23:45:45 435.175 FM
JAS-2 24 May 23:56:04 00:01:34 21° 270° (W) 00:07:10 435.800 - 435.900 CW/SSB, 435.910 FM
OPAL 25 May 00:01:46 00:05:33 20° 264° (W) 00:09:21 ?
RS-15 25 May 00:20:16 00:30:24 37° 41° (NE) 00:40:13 29.354 - 29.394 USB, Beacon 29.352 USB
MaSat-1 25 May 01:03:05 01:09:20 34° 108° (ESE) 01:14:42 437.345 MHz
AO-40 25 May 01:17:04 02:48:54 15° 116° (ESE) 03:50:04 Beacon 2401.320
KITSAT 1 25 May 01:28:22 01:34:17 22° 322° (NW) 01:40:14 435.175 FM
Oscar 19 25 May 02:02:21 02:05:20 15° 91° (E) 02:08:19 437.125 CW, 437.150 USB
Uribyol 2 25 May 02:04:13 02:06:52 14° 91° (E) 02:09:31 436.500 FM
ISS 25 May 02:15:01 02:18:17 66° 138° (SE) 02:21:35 145.800 FM
RS-15 25 May 02:32:38 02:43:34 69° 245° (WSW) 02:54:17 29.354 - 29.394 USB, Beacon 29.352 USB
Oscar 16 25 May 02:40:38 02:45:35 44° 99° (E) 02:50:28 437.025 USB, Beacon 2401.1428
MaSat-1 25 May 02:44:52 02:51:25 43° 299° (WNW) 02:56:50 437.345 MHz
AO-27 25 May 02:55:12 03:00:12 44° 99° (E) 03:05:10 436.795 MHz FM
ITAMSAT 1 25 May 03:01:11 03:06:16 49° 100° (E) 03:11:19 435.822 SSB
AO-Echo 25 May 03:24:59 03:29:03 27° 96° (E) 03:33:11 ?
Gurwin Techsat 1B 25 May 03:35:40 03:37:35 12° 90° (E) 03:39:29 435.225 FM
Oscar 19 25 May 03:39:59 03:45:03 58° 287° (WNW) 03:50:05 437.125 CW, 437.150 USB
Uribyol 2 25 May 03:41:36 03:46:48 66° 286° (WNW) 03:51:58 436.500 FM
ISS 25 May 03:52:48 03:55:16 19° 336° (NNW) 03:57:45 145.800 FM
Oscar 16 25 May 04:20:46 04:24:37 22° 295° (WNW) 04:28:27 437.025 USB, Beacon 2401.1428
AO-27 25 May 04:35:28 04:39:25 22° 295° (WNW) 04:43:22 436.795 MHz FM
ITAMSAT 1 25 May 04:41:39 04:45:23 20° 296° (WNW) 04:49:07 435.822 SSB
TMSAT-1 25 May 04:49:35 04:54:38 43° 99° (E) 04:59:39 436.925 FM
RS-15 25 May 04:50:05 04:53:37 12° 264° (W) 04:57:08 29.354 - 29.394 USB, Beacon 29.352 USB
Uosat F 25 May 04:58:04 05:03:08 85° 284° (WNW) 05:08:10 435.120 FM
Saudisat 1A 25 May 04:58:49 05:02:49 31° 113° (ESE) 05:06:52 436.775 MHz
AO-Echo 25 May 05:03:41 05:07:48 30° 291° (WNW) 05:12:00 ?
Gurwin Techsat 1B 25 May 05:12:47 05:18:06 77° 285° (WNW) 05:23:24 435.225 FM
KITSAT 1 25 May 05:30:59 05:33:56 12° 24° (NNE) 05:36:53 435.175 FM
STRAND 1 25 May 05:40:51 05:44:06 17° 63° (ENE) 05:47:22 ?
AO-7 25 May 05:56:53 06:05:01 52° 102° (ESE) 06:13:05 29.400 - 29.500 MHz
Sapphire 25 May 06:06:04 06:08:46 14° 103° (ESE) 06:11:28 437.095 MHz 1200 baud AX-25 AFSK
TMSAT-1 25 May 06:30:10 06:34:16 23° 294° (WNW) 06:38:21 436.925 FM
Saudisat 1A 25 May 06:38:30 06:42:29 29° 310° (NW) 06:46:31 436.775 MHz
ISS 25 May 07:09:13 07:10:59 14° 17° (NNE) 07:12:45 145.800 FM
PCSat 25 May 07:13:05 07:18:24 63° 114° (ESE) 07:23:46 145.825 MHz
STRAND 1 25 May 07:17:52 07:22:50 55° 259° (W) 07:27:51 ?
KITSAT 1 25 May 07:24:26 07:32:01 40° 50° (NE) 07:39:32 435.175 FM
Sapphire 25 May 07:46:08 07:51:31 72° 299° (WNW) 07:56:57 437.095 MHz 1200 baud AX-25 AFSK
AO-7 25 May 07:50:09 07:57:28 36° 300° (WNW) 08:04:48 29.400 - 29.500 MHz
JAS-1B 25 May 07:53:21 07:56:48 16° 90° (E) 08:00:11 435.800 - 435.900 CW/SSB
Hamsat 25 May 08:04:35 08:08:51 49° 99° (E) 08:13:06 145.90 MHz

Developed and maintained by Chris Peat, Heavens-Above GmbH. Please read the updated FAQ before sending e-mail. Imprint. DLR
